Weather History for Frankfort, KY

Change the Weather History Date:

Monday, December 9, 2013

  Actual Average Record
Temperature  
Mean Temperature 30 °F 37 °F  
Max Temperature 34 °F 46 °F 70 °F (1946)
Min Temperature 26 °F 28 °F -6 °F (1917)
Degree Days  
Heating Degree Days 35 28  
Month to date heating degree days 233 240  
Since 1 July heating degree days 1276 1151  
Cooling Degree Days 0 0  
Month to date cooling degree days 0 0  
Year to date cooling degree days 1127 1155  
Moisture  
Dew Point 28 °F    
Average Humidity 89    
Maximum Humidity 100    
Minimum Humidity 78    
Precipitation  
Precipitation T in 0.15 in 1.78 in (1972)
Month to date precipitation 2.11 1.30  
Year to date precipitation 47.33 42.91  
Sea Level Pressure  
Sea Level Pressure 30.16 in    
Wind  
Wind Speed 6 mph (West)    
Max Wind Speed 12 mph    
Max Gust Speed 17 mph    
Visibility 8 miles    
Events Snow    
T = Trace of Precipitation, MM = Missing Value Source: NWS Daily Summary

Daily Weather History Graph

Daily Weather History Graph

Search for Another Location

Airport:

Trip Planner

Search our weather history database for the weather conditions in past years. The results will help you decide how hot, cold, wet, or windy it might be!

Date:

Astronomy

Dec. 09, 2013 Rise Set
Actual Time 7:44 AM EST 5:19 PM EST
Civil Twilight 7:15 AM EST 5:48 PM EST
Nautical Twilight 6:42 AM EST 6:21 PM EST
Astronomical Twilight 6:10 AM EST 6:53 PM EST
Moon 12:42 PM EST (12/9) 12:03 AM EST (12/9)
Length of Visible Light 10h 33m
Length of Day
9h 34m
Waxing Crescent, 51% of the Moon is Illuminated
Dec 9
Waxing Crescent
Dec 17
Full
Dec 25
Last Quarter
Jan 1
New
Jan 7
First Quarter

Hourly Weather History & Observations

Time (EST) Temp. Windchill Dew Point Humidity Pressure Visibility Wind Dir Wind Speed Gust Speed Precip Events Conditions
12:53 AM 33.1 °F 27.7 °F 33.1 °F 100% 30.05 in 2.5 mi SW 5.8 mph - N/A   Overcast
1:14 AM 33.8 °F 28.6 °F 33.8 °F 100% 30.02 in 3.0 mi SW 5.8 mph - N/A   Overcast
1:45 AM 33.8 °F 27.0 °F 33.8 °F 100% 30.03 in 2.5 mi SW 8.1 mph - N/A   Overcast
1:53 AM 33.1 °F 26.1 °F 33.1 °F 100% 30.05 in 2.5 mi SW 8.1 mph - N/A   Overcast
2:28 AM 33.8 °F 25.8 °F 33.8 °F 100% 30.03 in 3.0 mi SW 10.4 mph - N/A   Overcast
2:53 AM 33.1 °F 26.1 °F 33.1 °F 100% 30.05 in 4.0 mi WSW 8.1 mph - N/A   Overcast
3:34 AM 33.8 °F 26.4 °F 33.8 °F 100% 30.04 in 8.0 mi SW 9.2 mph - N/A   Overcast
3:53 AM 33.1 °F 26.9 °F 32.0 °F 96% 30.07 in 8.0 mi WSW 6.9 mph - N/A   Overcast
4:53 AM 33.1 °F 28.7 °F 32.0 °F 96% 30.08 in 4.0 mi West 4.6 mph - N/A   Overcast
5:53 AM 33.1 °F 26.1 °F 32.0 °F 96% 30.11 in 5.0 mi WSW 8.1 mph - N/A   Overcast
6:31 AM 32.0 °F 25.6 °F 32.0 °F 100% 30.09 in 2.5 mi WSW 6.9 mph - 0.00 in Snow Light Snow
6:41 AM 32.0 °F 27.5 °F 32.0 °F 100% 30.10 in 4.0 mi WSW 4.6 mph - 0.00 in   Overcast
6:53 AM 32.0 °F 26.4 °F 32.0 °F 100% 30.13 in 8.0 mi WSW 5.8 mph - 0.00 in   Overcast
7:53 AM 32.0 °F 26.4 °F 30.9 °F 96% 30.16 in 10.0 mi West 5.8 mph - N/A   Overcast
8:06 AM 33.8 °F 28.6 °F 30.2 °F 87% 30.14 in 10.0 mi West 5.8 mph - N/A   Overcast
8:53 AM 32.0 °F 24.8 °F 30.0 °F 92% 30.18 in 10.0 mi West 8.1 mph - N/A   Overcast
9:53 AM 32.0 °F 26.4 °F 28.0 °F 85% 30.20 in 10.0 mi Variable 5.8 mph - N/A   Overcast
10:53 AM 30.9 °F 24.3 °F 26.1 °F 82% 30.22 in 10.0 mi West 6.9 mph - N/A   Overcast
11:02 AM 30.2 °F 24.3 °F 26.6 °F 86% 30.20 in 10.0 mi West 5.8 mph - N/A   Overcast
11:53 AM 30.9 °F 25.2 °F 26.1 °F 82% 30.20 in 10.0 mi WSW 5.8 mph - N/A   Overcast
12:53 PM 30.9 °F 23.5 °F 26.1 °F 82% 30.21 in 10.0 mi West 8.1 mph - N/A   Overcast
1:53 PM 30.9 °F 24.3 °F 25.0 °F 79% 30.22 in 10.0 mi West 6.9 mph - N/A   Overcast
2:53 PM 30.0 °F 21.7 °F 25.0 °F 82% 30.23 in 10.0 mi WSW 9.2 mph - N/A   Overcast
3:40 PM 28.4 °F 20.4 °F 24.8 °F 86% 30.21 in 10.0 mi WNW 8.1 mph - N/A   Overcast
3:53 PM 28.9 °F 21.9 °F 24.1 °F 82% 30.24 in 10.0 mi West 6.9 mph - N/A   Overcast
4:08 PM 28.4 °F 20.4 °F 23.0 °F 80% 30.22 in 10.0 mi West 8.1 mph - N/A   Overcast
4:53 PM 28.9 °F 22.8 °F 23.0 °F 78% 30.25 in 10.0 mi WNW 5.8 mph - N/A   Overcast
5:53 PM 28.0 °F 24.2 °F 23.0 °F 81% 30.25 in 10.0 mi West 3.5 mph - N/A   Overcast
6:53 PM 28.0 °F 22.8 °F 23.0 °F 81% 30.25 in 10.0 mi WSW 4.6 mph - N/A   Overcast
7:53 PM 28.0 °F 24.2 °F 23.0 °F 81% 30.26 in 10.0 mi West 3.5 mph - N/A   Overcast
8:53 PM 27.0 °F - 21.9 °F 81% 30.25 in 10.0 mi Calm Calm - N/A   Overcast
9:34 PM 26.6 °F 22.6 °F 21.2 °F 80% 30.20 in 10.0 mi West 3.5 mph - N/A   Scattered Clouds
9:53 PM 26.1 °F 21.9 °F 21.9 °F 84% 30.23 in 10.0 mi WNW 3.5 mph - N/A   Clear
10:53 PM 26.1 °F 21.9 °F 21.9 °F 84% 30.21 in 10.0 mi NNW 3.5 mph - N/A   Clear
11:53 PM 26.1 °F 21.9 °F 21.9 °F 84% 30.22 in 10.0 mi WNW 3.5 mph - N/A   Clear